Location: Unspecified
(47.9110°N, 14.3980°E)
Time: 15:59:57
(UTC+00:00)

Cosmos 1707 Rocket - Pass Details

Date: 06 August 2020
Orbit: 604 x 632 km, 82.5° (Epoch: 19 September)

Event Time Altitude Azimuth Distance (km) Brightness Sun altitude
Rises 20:28:53 0° 345° (NNW) 2,891 8.2 -16.5°
Reaches altitude 10° 20:31:10 10° 339° (NNW) 1,977 7.3 -16.8°
Maximum altitude 20:35:21 46° 267° (W) 821 4.4 -17.2°
Enters shadow 20:38:25 17° 199° (SSW) 1,551 5.3 -17.5°
